Beckley, WV

8:13 PM EDT on April 30, 2017 (GMT -0400)
Raleigh County Memorial

Weather History for KBKW - October, 2010

Change the Weather History Date:

Wednesday, October 6, 2010

  Actual Average Record
Temperature  
Mean Temperature 49 °F 56 °F  
Max Temperature 57 °F 66 °F 88 °F (1941)
Min Temperature 41 °F 46 °F 27 °F (1964)
Degree Days  
Heating Degree Days 16 9  
Month to date heating degree days 94 52  
Since 1 July heating degree days 167 186  
Cooling Degree Days 0 0  
Month to date cooling degree days 0 2  
Year to date cooling degree days 866 552  
Moisture  
Dew Point 40 °F    
Average Humidity 72    
Maximum Humidity 93    
Minimum Humidity 51    
Precipitation  
Precipitation 0.04 in 0.08 in 1.40 in (2014)
Month to date precipitation 0.39 0.48  
Year to date precipitation 35.55 33.15  
Snow  
Snow 0.00 in - - ()
Month to date snowfall 0.0  
Since 1 September snowfall 0.0  
Snow Depth 0.00 in    
Sea Level Pressure  
Sea Level Pressure 30.10 in    
Wind  
Wind Speed 7 mph (WNW)    
Max Wind Speed 21 mph    
Max Gust Speed 26 mph    
Visibility 10 miles    
Events Rain    
T = Trace of Precipitation, MM = Missing Value Source: NWS Daily Summary

Daily Weather History Graph

Daily Weather History Graph

Search for Another Location

Airport or City:

Trip Planner

Search our weather history database for the weather conditions in past years. The results will help you decide how hot, cold, wet, or windy it might be!

Date:

Astronomy

Oct. 06, 2010 Rise Set
Actual Time 7:24 AM EDT 7:00 PM EDT
Civil Twilight 6:58 AM EDT 7:26 PM EDT
Nautical Twilight 6:27 AM EDT 7:56 PM EDT
Astronomical Twilight 5:57 AM EDT 8:27 PM EDT
Moon 6:00 AM EDT (10/6) 6:02 PM EDT (10/6)
Length of Visible Light 12h 27m
Length of Day
11h 35m
Waning Crescent, 2% of the Moon is Illuminated
Oct 6
Waning Crescent
Oct 7
New
Oct 14
First Quarter
Oct 22
Full
Oct 30
Last Quarter

Hourly Weather History & Observations

Time (EDT) Temp. Windchill Dew Point Humidity Pressure Visibility Wind Dir Wind Speed Gust Speed Precip Events Conditions
12:12 AM 41.0 °F 35.2 °F 39.2 °F 93% 30.17 in 10.0 mi WNW 9.2 mph 17.3 mph 0.01 in Rain Light Rain
12:51 AM 41.0 °F 35.2 °F 37.9 °F 89% 30.20 in 10.0 mi NW 9.2 mph - 0.01 in Rain Light Rain
12:58 AM 41.0 °F 35.2 °F 37.4 °F 87% 30.16 in 10.0 mi NW 9.2 mph 17.3 mph 0.01 in Rain Light Rain
1:07 AM 41.0 °F 35.8 °F 39.2 °F 93% 30.16 in 10.0 mi NW 8.1 mph - 0.01 in Rain Light Rain
1:20 AM 41.0 °F 35.8 °F 39.2 °F 93% 30.16 in 10.0 mi NW 8.1 mph - 0.01 in Rain Light Rain
1:49 AM 41.0 °F 35.8 °F 39.2 °F 93% 30.15 in 10.0 mi NW 8.1 mph - 0.02 in Rain Light Rain
1:51 AM 41.0 °F 35.2 °F 39.0 °F 93% 30.18 in 10.0 mi NW 9.2 mph - 0.02 in Rain Light Rain
1:58 AM 41.0 °F 37.1 °F 39.2 °F 93% 30.15 in 10.0 mi WNW 5.8 mph - 0.00 in Rain Light Rain
2:51 AM 41.0 °F 35.2 °F 39.0 °F 93% 30.15 in 10.0 mi West 9.2 mph - 0.00 in Rain Light Rain
3:16 AM 41.0 °F 37.1 °F 39.2 °F 93% 30.12 in 10.0 mi West 5.8 mph - 0.01 in   Overcast
3:51 AM 41.0 °F 38.0 °F 39.0 °F 93% 30.14 in 10.0 mi West 4.6 mph - 0.01 in   Overcast
4:32 AM 42.8 °F 38.6 °F 39.2 °F 87% 30.09 in 10.0 mi WNW 6.9 mph - N/A   Overcast
4:51 AM 42.1 °F 37.7 °F 39.0 °F 89% 30.11 in 10.0 mi West 6.9 mph - N/A   Overcast
5:51 AM 42.1 °F - 39.0 °F 89% 30.12 in 10.0 mi Calm Calm - N/A   Overcast
6:51 AM 42.1 °F - 39.0 °F 89% 30.12 in 10.0 mi Calm Calm - N/A   Overcast
7:48 AM 42.8 °F 40.1 °F 39.2 °F 87% 30.10 in 7.0 mi WSW 4.6 mph - 0.01 in Rain Light Rain
7:51 AM 42.1 °F 39.2 °F 39.0 °F 89% 30.13 in 8.0 mi West 4.6 mph - 0.01 in Rain Light Rain
8:15 AM 42.8 °F 40.1 °F 39.2 °F 87% 30.09 in 10.0 mi SSW 4.6 mph - 0.01 in   Overcast
8:51 AM 42.1 °F 38.4 °F 39.9 °F 92% 30.11 in 10.0 mi WSW 5.8 mph - 0.01 in   Overcast
9:51 AM 44.1 °F 40.8 °F 41.0 °F 89% 30.11 in 10.0 mi WSW 5.8 mph - N/A   Overcast
10:51 AM 48.0 °F - 41.0 °F 77% 30.11 in 10.0 mi WNW 10.4 mph 17.3 mph N/A   Overcast
11:51 AM 50.0 °F - 42.1 °F 74% 30.12 in 10.0 mi WNW 9.2 mph - N/A   Overcast
12:51 PM 51.1 °F - 42.1 °F 71% 30.12 in 10.0 mi WNW 11.5 mph - 0.00 in Rain Light Rain
1:51 PM 52.0 °F - 39.9 °F 63% 30.09 in 10.0 mi WNW 15.0 mph 23.0 mph 0.00 in   Overcast
2:51 PM 53.1 °F - 39.0 °F 59% 30.06 in 10.0 mi NW 13.8 mph 20.7 mph N/A   Overcast
3:51 PM 55.0 °F - 39.9 °F 57% 30.04 in 10.0 mi WNW 18.4 mph 23.0 mph N/A   Mostly Cloudy
4:51 PM 55.9 °F - 41.0 °F 57% 30.02 in 10.0 mi WNW 11.5 mph - N/A   Mostly Cloudy
5:51 PM 57.0 °F - 39.0 °F 51% 30.00 in 10.0 mi WNW 10.4 mph - N/A   Partly Cloudy
6:51 PM 54.0 °F - 39.9 °F 59% 30.01 in 10.0 mi WNW 5.8 mph - N/A   Clear
7:51 PM 51.1 °F - 41.0 °F 68% 30.02 in 10.0 mi Calm Calm - N/A   Clear
9:51 PM 50.0 °F - 39.9 °F 68% 30.04 in 10.0 mi WSW 4.6 mph - N/A   Scattered Clouds
10:51 PM 51.1 °F - 39.0 °F 63% 30.03 in 10.0 mi West 5.8 mph - N/A   Mostly Cloudy
11:51 PM 48.9 °F - 37.9 °F 66% 30.03 in 10.0 mi WSW 5.8 mph - N/A   Clear